Home > Weather > Alexandria > Past weeks

Flag for U.S.A. Weather for the Past 2 Weeks in Alexandria, Virginia, U.S.A.

Now
41 °F

Light rain. Overcast.


Feels Like: 33 °F
Forecast: 34 / 38 °F
Wind: 14 mph from South

Location: Reagan National Airport

Current Time: Feb 8, 2016 at 9:16:00 PM

Latest Report: Feb 8, 2016 at 7:52 PM


Visibility: 10 mi

Pressure: 29.72 "Hg

Humidity: 74%

Dew point: 33 °F

Location of AlexandriaLocation

Historic Weather in Alexandria — Graph

°F

Alexandria Temperature Yesterday

Maximum temperature yesterday: 46 °F (at 2:52 PM)
Minimum temperature yesterday: 30 °F (at 4:52 AM)
Average temperature yesterday: 38 °F

High & Low Weather Summary for the Past Weeks

 TemperatureHumidityPressure
High60 °F (Feb 1, 12:52 PM)100% (Feb 3, 4:52 PM)30.48 "Hg (Feb 3, 4:52 PM)
Low17 °F (Jan 25, 5:52 AM)37% (Feb 7, 2:52 PM)29.56 "Hg (Jan 29, 4:52 AM)
Average40 °F65%30.06 "Hg
* Reported Jan 24 7:52 PM — Feb 8 7:52 PM, Alexandria, Weather by CustomWeather, © 2016

Note: Actual official high and low records may vary slightly from our data, if they occured in-between our weather recording intervals... More about our weather records

Advertising

Alexandria Weather History for the Previous 24 Hours

 ConditionsComfort  
Time TempWeatherWind HumidityBarometerVisibility
7:52 PM
Mon, Feb 8
41 °FLight rain. Overcast.14 mph74%29.72 "Hg10 mi
6:52 PM43 °FOvercast.9 mph62%29.72 "Hg10 mi
5:52 PM43 °FOvercast.12 mph62%29.70 "Hg10 mi
4:52 PM45 °FOvercast.6 mph53%29.69 "Hg10 mi
3:52 PM46 °FOvercast.8 mph51%29.69 "Hg10 mi
2:52 PM46 °FCloudy.5 mph51%29.70 "Hg10 mi
1:52 PM46 °FMore clouds than sun.7 mph51%29.70 "Hg10 mi
12:52 PM45 °FPartly sunny.3 mph53%29.72 "Hg10 mi
11:52 AM44 °FPartly sunny.No wind53%29.75 "Hg10 mi
10:52 AM44 °FPartly sunny.7 mph53%29.80 "Hg10 mi
9:52 AM42 °FPartly sunny.10 mph53%29.80 "Hg10 mi
8:52 AM40 °FPartly sunny.13 mph49%29.82 "Hg10 mi
7:52 AM36 °FPartly sunny.8 mph57%29.82 "Hg10 mi
6:52 AM35 °FPassing clouds.10 mph56%29.81 "Hg10 mi
5:52 AM35 °FPassing clouds.7 mph59%29.79 "Hg10 mi
4:52 AM36 °FPassing clouds.13 mph57%29.78 "Hg10 mi
3:52 AM36 °FPassing clouds.10 mph57%29.76 "Hg10 mi
2:52 AM37 °FPassing clouds.13 mph54%29.77 "Hg10 mi
1:52 AM38 °FPassing clouds.13 mph55%29.80 "Hg10 mi
12:52 AM38 °FMostly cloudy.10 mph58%29.83 "Hg10 mi
11:52 PM
Sun, Feb 7
40 °FOvercast.10 mph53%29.86 "Hg10 mi
10:52 PM40 °FOvercast.10 mph53%29.88 "Hg10 mi
9:52 PM39 °FOvercast.9 mph55%29.91 "Hg10 mi
Weather by CustomWeather, © 2016

See weather overviewHow to use our weather pages